Notices

What's New in latest Release from April 7th, 2021:

- Updated Glossary, including Speed of Maximum Gust, and Total Hourly Precipitation

- Updated national and regional climate services offices contacts and prices information

- Addition of station inventory lists for 1981-2010, 1971-2000, and 1961-1990 Normals.

If you haven't already, please take our survey and provide feedback about our website: https://eccc.sondage-survey.ca/f/LanguageSelection.aspx?s=442ca660-fcf1-47c0-95a9-59707d6fd709

Hourly Data Report for April 10, 2021

WIARTON A
ONTARIO
Current Station Operator: NAVCAN

44°44'39.000" N
81°06'31.000" W
221.90 m
6119499
71633
YVV

Download Data

Hourly Data (April 2021)
Hourly Data Report for April 10, 2021
TIME
LST
Temp Definition
°C
Dew Point Definition
°C
Rel Hum Definition
%
Precip. Amount Definition
mm

Wind Dir Definition
10's deg

Wind Spd Definition
km/h
Visibility Definition
km
Stn Press Definition
kPa
Hmdx Definition


Wind Chill Definition


Weather Definition


00:00 15.8 9.8 67   16 20 24.1 98.19     LegendNANA
01:00 15.5 9.4 66   17 19 24.1 98.16     Mainly Clear
02:00 15.0 8.8 66   16 19 24.1 98.10     LegendNANA
03:00 14.5 8.3 66   17 18 24.1 98.10     LegendNANA
04:00 13.5 8.1 69   19 17 24.1 98.24     Mainly Clear
05:00 12.1 7.7 74   20 10 24.1 98.24     LegendNANA
06:00 11.1 7.5 78   22 6 24.1 98.25     LegendNANA
07:00 12.5 8.3 75   19 9 24.1 98.27     Mostly Cloudy
08:00 14.0 8.5 69   22 13 24.1 98.25     LegendNANA
09:00 15.6 8.8 64   23 10 24.1 98.25     LegendNANA
10:00 16.6 9.2 61   31 7 24.1 98.21     Mostly Cloudy
11:00 18.1 10.2 60   27 5 24.1 98.22     LegendNANA
12:00 17.7 9.0 57   36 9 24.1 98.18     LegendNANA
13:00 18.0 9.6 57   3 15 24.1 98.09     Cloudy
14:00 18.2 10.1 59   4 10 24.1 98.01     LegendNANA
15:00 17.0 9.1 59   1 11 24.1 97.97     LegendNANA
16:00 17.5 9.5 59   1 7 24.1 97.87     Mostly Cloudy
17:00 15.1 8.8 66   34 3 24.1 97.78     LegendNANA
18:00 12.3 7.9 74   2 3 24.1 97.68     LegendNANA
19:00 10.4 7.2 80   36 3 24.1 97.62     Cloudy
20:00 10.1 7.0 81   36 3 24.1 97.60     LegendNANA
21:00 9.6 6.7 82   1 3 24.1 97.54     LegendNANA
22:00 9.1 6.6 84   5 3 24.1 97.47     Cloudy
23:00 8.5 6.2 85   36 1 24.1 97.38     LegendNANA

Notes on Data Quality.

Legend

  • E = Estimated
  • M = Missing
  • NA = Not Available*
  • [empty] = Indicates an unobserved value
Date modified: